Farnsworth, TX

1:28 PM CST on February 08, 2016 (GMT -0600)
Perryton Ochiltree County

Weather History for KPYX - March, 2013

Change the Weather History Date:

Saturday, March 16, 2013

  Actual Average Record
Temperature  
Mean Temperature 48 °F -  
Max Temperature 56 °F 57 °F 86 °F (2015)
Min Temperature 39 °F 28 °F 13 °F (1969)
Degree Days  
Heating Degree Days 18    
Moisture  
Dew Point 31 °F    
Average Humidity 51    
Maximum Humidity 75    
Minimum Humidity 34    
Precipitation  
Precipitation 0.00 in - - ()
Sea Level Pressure  
Sea Level Pressure 29.84 in    
Wind  
Wind Speed 12 mph (NE)    
Max Wind Speed 26 mph    
Max Gust Speed 36 mph    
Visibility 10 miles    
Events      
Averages and records for this station are not official NWS values.
T = Trace of Precipitation, MM = Missing Value Source: NWS Daily Summary

Daily Weather History Graph

Daily Weather History Graph

Search for Another Location

Airport or City:

Trip Planner

Search our weather history database for the weather conditions in past years. The results will help you decide how hot, cold, wet, or windy it might be!

Date:

Astronomy

Mar. 16, 2013 Rise Set
Actual Time 7:51 AM CDT 7:51 PM CDT
Civil Twilight 7:26 AM CDT 8:17 PM CDT
Nautical Twilight 6:56 AM CDT 8:47 PM CDT
Astronomical Twilight 6:26 AM CDT 9:17 PM CDT
Moon 10:31 AM CDT (3/16) No Moon Set
Length of Visible Light 12h 50m
Length of Day
11h 59m
Waxing Crescent, 23% of the Moon is Illuminated
Mar 16
Waxing Crescent
Mar 19
First Quarter
Mar 27
Full
Apr 2
Last Quarter
Apr 10
New

Hourly Weather History & Observations

Time (CDT) Temp. Windchill Dew Point Humidity Pressure Visibility Wind Dir Wind Speed Gust Speed Precip Events Conditions
12:15 AM 50.5 °F - 27.9 °F 42% 29.76 in 10.0 mi South 6.9 mph - N/A   Clear
12:35 AM 52.3 °F - 30.0 °F 42% 29.76 in 10.0 mi South 8.1 mph - N/A   Clear
12:55 AM 50.5 °F - 29.7 °F 45% 29.75 in 10.0 mi South 8.1 mph - N/A   Clear
1:35 AM 56.3 °F - 28.0 °F 34% 29.73 in 10.0 mi SSE 6.9 mph - N/A   Clear
1:55 AM 51.8 °F - 28.2 °F 40% 29.73 in 10.0 mi SSW 9.2 mph - N/A   Clear
2:15 AM 48.2 °F - 28.4 °F 46% 29.73 in 10.0 mi SSW 6.9 mph - N/A   Clear
2:35 AM 52.9 °F - 28.2 °F 39% 29.73 in 10.0 mi SSW 5.8 mph - N/A   Clear
2:55 AM 53.2 °F - 28.0 °F 38% 29.73 in 10.0 mi SW 6.9 mph - N/A   Clear
3:15 AM 50.0 °F - 27.9 °F 42% 29.72 in 10.0 mi West 4.6 mph - N/A   Clear
3:35 AM 50.2 °F - 28.0 °F 42% 29.71 in 10.0 mi West 3.5 mph - N/A   Clear
3:55 AM 45.3 °F 40.1 °F 27.5 °F 50% 29.72 in 10.0 mi NW 10.4 mph 17.3 mph N/A   Clear
4:15 AM 49.3 °F - 28.4 °F 45% 29.73 in 10.0 mi West 11.5 mph - N/A   Clear
4:35 AM 49.5 °F - 27.5 °F 43% 29.71 in 10.0 mi Calm Calm - N/A   Clear
4:55 AM 45.0 °F 43.5 °F 29.3 °F 54% 29.70 in 10.0 mi East 3.5 mph - N/A   Clear
5:15 AM 45.5 °F 42.5 °F 29.8 °F 54% 29.71 in 10.0 mi ENE 5.8 mph - N/A   Clear
5:35 AM 40.8 °F - 28.0 °F 60% 29.72 in 10.0 mi Calm Calm - N/A   Clear
5:55 AM 39.0 °F - 28.0 °F 65% 29.73 in 10.0 mi Calm Calm - N/A   Clear
6:15 AM 40.6 °F 33.8 °F 28.8 °F 63% 29.75 in 10.0 mi NNE 11.5 mph 19.6 mph N/A   Clear
6:35 AM 45.3 °F 38.7 °F 31.1 °F 58% 29.76 in 10.0 mi NNE 15.0 mph - N/A   Clear
7:15 AM 46.4 °F 40.1 °F 37.6 °F 71% 29.79 in 10.0 mi NNE 15.0 mph 23.0 mph N/A   Clear
7:35 AM 45.9 °F 38.5 °F 38.3 °F 75% 29.80 in 10.0 mi NNE 18.4 mph 24.2 mph N/A   Clear
7:55 AM 45.5 °F 37.8 °F 37.9 °F 75% 29.81 in 10.0 mi NNE 19.6 mph 26.5 mph N/A   Clear
8:15 AM 45.5 °F 38.1 °F 37.4 °F 73% 29.83 in 10.0 mi NNE 18.4 mph 26.5 mph N/A   Clear
8:35 AM 46.4 °F 38.3 °F 36.5 °F 68% 29.84 in 10.0 mi NNE 23.0 mph 35.7 mph N/A   Clear
8:55 AM 46.9 °F - 36.5 °F 67% 29.85 in 10.0 mi NNE 21.9 mph 27.6 mph N/A   Clear
9:15 AM 47.3 °F - 37.4 °F 68% 29.88 in 10.0 mi NNE 21.9 mph 26.5 mph N/A   Clear
9:35 AM 47.5 °F - 37.2 °F 68% 29.89 in 10.0 mi NNE 19.6 mph 29.9 mph N/A   Clear
9:55 AM 47.7 °F - 35.6 °F 63% 29.90 in 10.0 mi NE 25.3 mph 33.4 mph N/A   Clear
10:15 AM 48.2 °F - 34.2 °F 58% 29.90 in 10.0 mi NE 24.2 mph 35.7 mph N/A   Clear
10:35 AM 49.1 °F - 34.9 °F 58% 29.90 in 10.0 mi NNE 21.9 mph 27.6 mph N/A   Clear
10:55 AM 49.5 °F - 34.3 °F 56% 29.90 in 10.0 mi NE 23.0 mph 29.9 mph N/A   Clear
11:15 AM 49.6 °F - 33.3 °F 53% 29.91 in 10.0 mi NE 21.9 mph 31.1 mph N/A   Clear
11:35 AM 49.1 °F - 32.9 °F 54% 29.92 in 10.0 mi NE 26.5 mph 32.2 mph N/A   Clear
11:55 AM 50.0 °F - 32.4 °F 51% 29.92 in 10.0 mi NE 25.3 mph 32.2 mph N/A   Clear
12:15 PM 50.2 °F - 32.5 °F 51% 29.92 in 10.0 mi NE 20.7 mph 32.2 mph N/A   Clear
12:35 PM 51.4 °F - 32.4 °F 48% 29.92 in 10.0 mi NE 21.9 mph 31.1 mph N/A   Clear
12:55 PM 52.5 °F - 32.4 °F 46% 29.92 in 10.0 mi NE 20.7 mph 29.9 mph N/A   Clear
1:15 PM 52.7 °F - 32.2 °F 46% 29.91 in 10.0 mi NE 21.9 mph 26.5 mph N/A   Clear
1:35 PM 53.2 °F - 32.0 °F 44% 29.91 in 10.0 mi NE 19.6 mph 28.8 mph N/A   Clear
1:55 PM 54.5 °F - 32.0 °F 42% 29.90 in 10.0 mi ENE 17.3 mph 26.5 mph N/A   Clear
2:15 PM 54.7 °F - 32.0 °F 42% 29.90 in 10.0 mi NE 16.1 mph 25.3 mph N/A   Clear
2:35 PM 55.4 °F - 32.0 °F 41% 29.89 in 10.0 mi NE 18.4 mph 24.2 mph N/A   Clear
2:55 PM 56.3 °F - 31.6 °F 39% 29.88 in 10.0 mi NE 18.4 mph 24.2 mph N/A   Clear
3:15 PM 55.4 °F - 31.8 °F 41% 29.87 in 10.0 mi NE 18.4 mph 24.2 mph N/A   Clear
3:35 PM 55.6 °F - 31.1 °F 39% 29.87 in 10.0 mi NE 19.6 mph 25.3 mph N/A   Clear
3:55 PM 55.8 °F - 31.1 °F 39% 29.87 in 10.0 mi NE 15.0 mph 23.0 mph N/A   Clear
4:15 PM 55.9 °F - 31.3 °F 39% 29.86 in 10.0 mi NE 16.1 mph - N/A   Clear
4:35 PM 56.5 °F - 30.7 °F 38% 29.87 in 10.0 mi NE 15.0 mph 20.7 mph N/A   Clear
4:55 PM 55.8 °F - 30.9 °F 39% 29.86 in 10.0 mi ENE 15.0 mph 21.9 mph N/A   Clear
5:15 PM 55.4 °F - 30.7 °F 39% 29.85 in 10.0 mi NE 15.0 mph 24.2 mph N/A   Clear
5:35 PM 54.5 °F - 29.8 °F 39% 29.85 in 10.0 mi NE 18.4 mph - N/A   Clear
5:55 PM 53.2 °F - 30.2 °F 41% 29.86 in 10.0 mi NE 17.3 mph - N/A   Clear
6:15 PM 52.7 °F - 30.4 °F 42% 29.86 in 10.0 mi NE 12.7 mph - N/A   Clear
6:35 PM 51.6 °F - 29.8 °F 43% 29.87 in 10.0 mi NE 16.1 mph 19.6 mph N/A   Clear
6:55 PM 50.9 °F - 30.0 °F 45% 29.87 in 10.0 mi NE 16.1 mph 19.6 mph N/A   Clear
7:15 PM 50.2 °F - 30.2 °F 46% 29.87 in 10.0 mi NE 13.8 mph - N/A   Clear
7:35 PM 49.1 °F - 30.2 °F 48% 29.87 in 10.0 mi NE 16.1 mph - N/A   Clear
7:55 PM 48.0 °F - 30.2 °F 50% 29.88 in 10.0 mi NE 13.8 mph - N/A   Clear
8:15 PM 47.3 °F - 30.2 °F 52% 29.88 in 10.0 mi NE 15.0 mph 19.6 mph N/A   Clear
8:35 PM 46.6 °F - 30.2 °F 53% 29.89 in 10.0 mi NE 13.8 mph - N/A   Clear
8:55 PM 45.5 °F 39.2 °F 30.4 °F 56% 29.90 in 10.0 mi NE 13.8 mph - N/A   Clear
9:15 PM 44.6 °F 37.8 °F 30.4 °F 57% 29.91 in 10.0 mi NNE 15.0 mph 20.7 mph N/A   Clear
9:35 PM 44.1 °F 38.6 °F 30.4 °F 59% 29.93 in 10.0 mi NNE 10.4 mph - N/A   Clear
9:55 PM 43.7 °F 36.0 °F 30.2 °F 59% 29.92 in 10.0 mi NNE 17.3 mph - N/A   Clear
10:15 PM 43.0 °F 35.7 °F 30.2 °F 61% 29.93 in 10.0 mi NNE 15.0 mph - N/A   Clear
10:35 PM 42.6 °F 35.6 °F 30.2 °F 61% 29.93 in 10.0 mi NNE 13.8 mph - N/A   Clear
10:55 PM 42.4 °F 35.3 °F 30.2 °F 62% 29.93 in 10.0 mi NNE 13.8 mph - N/A   Clear
11:15 PM 41.0 °F 33.5 °F 29.7 °F 64% 29.94 in 10.0 mi NNE 13.8 mph - N/A   Clear
11:35 PM 40.3 °F 31.9 °F 29.3 °F 65% 29.94 in 10.0 mi NE 16.1 mph - N/A   Clear
11:55 PM 39.4 °F 31.4 °F 29.3 °F 67% 29.94 in 10.0 mi NE 13.8 mph - N/A   Clear